TimeEDT,TemperatureF,Dew PointF,Humidity,Sea Level PressureIn,VisibilityMPH,Wind Direction,Wind SpeedMPH,Gust SpeedMPH,PrecipitationIn,Events,Conditions,WindDirDegrees,DateUTC
12:53 AM,55.0,37.9,53,29.75,10.0,SE,5.8,-,N/A,,Clear,140,2012-10-18 04:53:00
1:53 AM,55.0,37.9,53,29.76,10.0,SSE,5.8,-,N/A,,Clear,150,2012-10-18 05:53:00
2:53 AM,53.1,37.0,55,29.75,10.0,ESE,6.9,-,N/A,,Clear,110,2012-10-18 06:53:00
3:53 AM,53.1,39.0,59,29.74,10.0,SE,6.9,-,N/A,,Clear,130,2012-10-18 07:53:00
4:53 AM,52.0,39.9,63,29.73,10.0,SE,5.8,-,N/A,,Clear,130,2012-10-18 08:53:00
5:53 AM,53.1,41.0,64,29.72,10.0,SE,6.9,-,N/A,,Clear,130,2012-10-18 09:53:00
6:53 AM,52.0,41.0,66,29.72,10.0,SE,6.9,-,N/A,,Clear,140,2012-10-18 10:53:00
7:53 AM,53.1,41.0,64,29.73,10.0,SE,6.9,-,N/A,,Clear,140,2012-10-18 11:53:00
8:53 AM,54.0,42.1,64,29.73,10.0,SSE,8.1,-,N/A,,Clear,150,2012-10-18 12:53:00
9:53 AM,55.9,43.0,62,29.72,10.0,SE,5.8,-,N/A,,Clear,140,2012-10-18 13:53:00
10:53 AM,64.0,42.1,45,29.70,10.0,South,9.2,19.6,N/A,,Clear,170,2012-10-18 14:53:00
11:53 AM,66.0,42.1,42,29.70,10.0,South,13.8,20.7,N/A,,Clear,170,2012-10-18 15:53:00
12:53 PM,68.0,43.0,40,29.68,10.0,South,11.5,21.9,N/A,,Mostly Cloudy,180,2012-10-18 16:53:00
1:53 PM,68.0,43.0,40,29.69,10.0,South,15.0,24.2,N/A,,Overcast,190,2012-10-18 17:53:00
2:53 PM,66.9,45.0,45,29.69,10.0,SSW,8.1,-,N/A,,Overcast,200,2012-10-18 18:53:00
3:53 PM,61.0,46.0,58,29.70,10.0,NW,11.5,20.7,N/A,,Overcast,310,2012-10-18 19:53:00
4:53 PM,51.1,46.0,83,29.74,10.0,WNW,8.1,19.6,0.05,Rain,Light Rain,300,2012-10-18 20:53:00
5:21 PM,50.0,46.4,87,29.75,1.5,West,10.4,16.1,0.22,Rain,Heavy Rain,280,2012-10-18 21:21:00
5:53 PM,50.0,46.0,86,29.78,7.0,NW,3.5,-,0.33,Rain,Light Rain,320,2012-10-18 21:53:00
6:53 PM,50.0,46.0,86,29.82,5.0,SE,3.5,-,0.08,Rain,Rain,140,2012-10-18 22:53:00
7:53 PM,48.9,46.0,90,29.82,9.0,ESE,4.6,-,0.08,Rain,Light Rain,110,2012-10-18 23:53:00
8:53 PM,50.0,46.9,89,29.86,5.0,Calm,Calm,-,0.00,,Overcast,0,2012-10-19 00:53:00
9:53 PM,50.0,46.0,86,29.84,8.0,Calm,Calm,-,0.00,,Mostly Cloudy,0,2012-10-19 01:53:00
10:15 PM,48.2,46.4,93,29.81,2.0,SE,8.1,-,N/A,,Mostly Cloudy,130,2012-10-19 02:15:00
10:19 PM,48.2,46.4,93,29.80,0.8,ESE,6.9,-,N/A,,Mostly Cloudy,120,2012-10-19 02:19:00
10:33 PM,48.2,46.4,93,29.81,0.5,ESE,5.8,-,N/A,Fog,Fog,120,2012-10-19 02:33:00
10:45 PM,48.2,46.4,93,29.81,1.0,SE,5.8,-,N/A,,Mostly Cloudy,140,2012-10-19 02:45:00
10:53 PM,48.0,45.0,89,29.82,1.0,SSE,5.8,-,N/A,,Mist,150,2012-10-19 02:53:00
11:50 PM,46.4,44.6,93,29.80,3.0,South,4.6,-,0.01,,Scattered Clouds,180,2012-10-19 03:50:00
11:53 PM,46.9,45.0,93,29.81,3.0,South,5.8,-,0.01,,Scattered Clouds,170,2012-10-19 03:53:00